Weather History for Fort Stockton, TX

Change the Weather History Date:

Monday, August 19, 2013

  Actual Average Record
Temperature  
Mean Temperature 84 °F -  
Max Temperature 96 °F 90 °F 102 °F (2007)
Min Temperature 71 °F 68 °F 66 °F (2004)
Cooling Degree Days 18    
Growing Degree Days 34 (Base 50)    
Moisture  
Dew Point 51 °F    
Average Humidity 36    
Maximum Humidity 61    
Minimum Humidity 14    
Precipitation  
Precipitation 0.00 in - - ()
Sea Level Pressure  
Sea Level Pressure 29.89 in    
Wind  
Wind Speed 10 mph (SSE)    
Max Wind Speed 17 mph    
Max Gust Speed 25 mph    
Visibility 10 miles    
Events      
Averages and records for this station are not official NWS values.
T = Trace of Precipitation, MM = Missing Value Source: NWS Daily Summary

Daily Weather History Graph

Daily Weather History Graph

Search for Another Location

Airport:

Trip Planner

Search our weather history database for the weather conditions in past years. The results will help you decide how hot, cold, wet, or windy it might be!

Date:

Astronomy

Aug. 19, 2013 Rise Set
Actual Time 7:20 AM CDT 8:29 PM CDT
Civil Twilight 6:55 AM CDT 8:54 PM CDT
Nautical Twilight 6:25 AM CDT 9:24 PM CDT
Astronomical Twilight 5:54 AM CDT 9:55 PM CDT
Moon 7:22 PM CDT (8/19) 5:44 AM CDT (8/19)
Length of Visible Light 13h 59m
Length of Day
13h 09m
Waxing Gibbous, 97% of the Moon is Illuminated
Aug 19
Waxing Gibbous
Aug 20
Full
Aug 28
Last Quarter
Sep 5
New
Sep 12
First Quarter

Hourly Weather History & Observations

Time (CDT) Temp. Heat Index Dew Point Humidity Pressure Visibility Wind Dir Wind Speed Gust Speed Precip Events Conditions
12:53 AM 78.1 °F - 54.0 °F 43% 29.92 in 10.0 mi South 9.2 mph - N/A   Clear
1:53 AM 77.0 °F - 55.0 °F 47% 29.91 in 10.0 mi SSE 5.8 mph - N/A   Clear
2:53 AM 73.0 °F - 55.0 °F 53% 29.91 in 10.0 mi South 8.1 mph - N/A   Clear
3:53 AM 71.1 °F - 55.9 °F 59% 29.91 in 10.0 mi South 6.9 mph - N/A   Clear
4:53 AM 71.1 °F - 57.0 °F 61% 29.91 in 10.0 mi South 9.2 mph - N/A   Clear
5:53 AM 71.1 °F - 54.0 °F 55% 29.90 in 10.0 mi South 8.1 mph - N/A   Clear
6:53 AM 71.1 °F - 54.0 °F 55% 29.91 in 10.0 mi South 9.2 mph - N/A   Clear
7:53 AM 73.9 °F - 53.1 °F 48% 29.91 in 10.0 mi SW 11.5 mph - N/A   Clear
8:53 AM 75.0 °F - 55.9 °F 51% 29.94 in 10.0 mi SSE 8.1 mph - N/A   Clear
9:53 AM 82.9 °F 81.9 °F 54.0 °F 37% 29.94 in 10.0 mi SW 8.1 mph - N/A   Clear
10:53 AM 88.0 °F 85.9 °F 54.0 °F 31% 29.94 in 10.0 mi SSW 10.4 mph - N/A   Clear
11:53 AM 91.9 °F - 52.0 °F 26% 29.93 in 10.0 mi Calm Calm - N/A   Clear
12:53 PM 93.9 °F 91.4 °F 53.1 °F 25% 29.91 in 10.0 mi SE 10.4 mph 20.7 mph N/A   Clear
1:53 PM 95.0 °F 92.5 °F 53.1 °F 24% 29.90 in 10.0 mi SE 17.3 mph 25.3 mph N/A   Clear
2:53 PM 96.1 °F - 48.9 °F 20% 29.89 in 10.0 mi SE 13.8 mph 24.2 mph N/A   Clear
3:53 PM 96.1 °F - 46.9 °F 19% 29.87 in 10.0 mi SE 15.0 mph 24.2 mph N/A   Clear
4:53 PM 96.1 °F - 39.9 °F 14% 29.86 in 10.0 mi SE 11.5 mph 20.7 mph N/A   Clear
5:53 PM 95.0 °F - 44.1 °F 17% 29.84 in 10.0 mi SE 15.0 mph - N/A   Clear
6:53 PM 93.0 °F - 46.0 °F 20% 29.84 in 10.0 mi SE 16.1 mph 24.2 mph N/A   Clear
7:53 PM 91.0 °F - 46.0 °F 21% 29.84 in 10.0 mi SSE 9.2 mph 18.4 mph N/A   Clear
8:53 PM 87.1 °F - 48.0 °F 26% 29.86 in 10.0 mi SSE 10.4 mph - N/A   Clear
9:53 PM 82.9 °F - 50.0 °F 32% 29.86 in 10.0 mi SSE 13.8 mph - N/A   Clear
10:53 PM 81.0 °F - 52.0 °F 36% 29.87 in 10.0 mi SSE 13.8 mph - N/A   Clear
11:53 PM 79.0 °F - 53.1 °F 40% 29.87 in 10.0 mi SSE 12.7 mph - N/A   Clear